GFSMW_con_lsi_198.txt.gz
Lid_Strength_Index
4 5 5 4 4 4 4 3 3 3 3 3 3 3 3 3 3 2 2 2 3 4 4 4 3 3 2 2 2 2 3 3 3 4 5 4 3 3 2 2 2 3 3
6 5 5 5 5 4 4 4 3 3 3 3 3 3 3 3 3 4 3 4 5 5 5 5 5 3 2 2 2 2 3 3 3 5 5 7 5 3 3 3 4 5 5
7 9 10 9 7 7 6 4 4 3 3 3 4 5 6 6 7 6 6 5 5 5 5 4 3 3 3 2 2 2 3 3 4 3 4 8 8 4 4 6 6 7 8
12 12 12 12 11 11 10 10 9 8 7 5 5 5 5 5 6 5 5 4 4 4 4 4 4 3 3 2 2 2 2 3 3 3 3 5 5 6 7 6 8 8 9
12 12 12 11 11 10 10 10 9 8 8 7 7 6 7 7 7 7 6 6 6 6 5 5 5 5 4 4 3 3 4 4 3 4 5 5 5 5 6 7 9 10 10
12 11 11 10 11 11 10 10 10 9 9 9 8 8 8 8 8 7 7 7 7 7 7 6 6 6 5 5 4 4 5 4 3 4 5 5 5 6 5 5 7 9 11
11 11 11 11 11 11 11 10 10 10 9 9 9 9 9 8 8 8 8 7 7 7 7 7 7 7 6 6 5 5 5 5 5 4 4 5 5 6 6 5 7 10 13
11 11 10 10 11 11 11 11 11 11 10 10 10 9 9 9 9 8 7 7 7 6 7 7 7 7 7 7 6 7 7 7 6 6 5 5 6 6 7 7 7 9 11
11 11 11 11 11 11 11 11 11 11 10 10 10 10 10 10 9 8 7 7 7 6 7 7 8 8 7 7 7 7 7 7 7 6 6 7 7 9 8 8 8 7 9
12 12 12 11 11 10 10 10 10 10 10 10 10 9 9 9 9 9 8 8 7 7 7 8 8 8 8 9 9 9 7 7 7 8 8 9 10 10 10 10 9 9 8
12 11 11 11 10 10 10 10 10 10 10 9 9 9 9 9 9 9 8 8 8 7 7 8 8 8 8 9 9 9 9 8 8 8 9 9 10 11 11 11 11 10 10
11 11 11 11 11 11 11 10 10 10 10 9 9 9 9 8 8 8 8 8 8 8 7 8 8 8 8 8 9 9 9 9 8 9 9 9 10 11 11 12 11 11 10
12 11 11 11 11 11 11 11 10 10 10 9 10 10 10 9 9 9 8 8 8 8 8 7 7 7 8 8 8 9 9 8 8 9 10 9 10 10 11 11 12 12 11
12 12 11 11 11 11 11 10 10 11 11 11 10 10 10 10 9 9 8 8 8 8 8 7 7 7 7 8 8 8 8 8 8 9 9 9 10 9 11 11 12 12 12
12 12 12 11 11 11 11 10 11 11 11 11 11 11 10 10 10 10 9 9 9 9 9 9 9 9 8 8 9 9 8 9 9 9 9 9 9 10 10 10 11 12 12
12 11 11 11 11 11 11 11 11 11 12 12 12 11 11 12 12 12 11 11 11 10 10 10 10 10 9 8 7 7 9 9 9 9 10 9 11 10 10 9 9 11 12
11 11 11 11 12 12 11 12 12 12 12 13 12 13 13 13 13 13 13 13 12 11 11 11 11 11 10 8 8 8 8 9 9 10 10 10 10 11 11 9 9 10 9
11 11 11 12 12 12 13 13 13 13 14 14 14 14 14 14 14 14 14 13 13 13 12 12 11 11 10 8 8 8 9 9 9 9 10 11 11 11 11 11 11 12 12
11 11 12 12 13 13 13 14 14 14 15 15 15 14 14 15 15 15 15 14 14 14 13 12 12 12 11 9 8 8 9 10 10 10 10 11 11 11 10 12 12 13 14
12 13 13 14 14 14 14 15 15 15 16 16 15 15 15 15 16 16 15 15 14 14 13 13 13 12 12 10 9 8 10 10 10 10 11 10 10 10 10 12 13 14 16
14 14 15 15 15 15 15 16 16 17 16 16 16 16 16 17 16 16 16 15 15 15 15 14 13 13 12 11 9 8 9 10 10 10 10 11 9 9 9 10 13 14 15
15 14 16 16 16 16 16 17 18 17 18 18 18 19 18 17 17 17 17 16 16 16 16 15 15 13 12 11 9 8 8 7 9 9 10 10 10 8 9 10 12 12 15
15 15 17 17 17 17 18 19 19 19 19 20 21 20 19 19 18 19 18 18 17 17 16 16 15 14 12 11 9 8 8 7 8 8 8 9 9 8 9 9 11 13 16
17 18 19 19 19 19 19 20 20 20 22 22 22 21 21 21 20 19 19 19 18 17 17 16 15 14 12 10 9 9 9 8 7 7 8 9 9 9 9 11 11 13 16
19 20 21 21 21 21 21 22 21 22 23 23 23 22 22 23 22 21 20 19 17 16 16 15 13 13 13 10 8 7 7 8 8 7 10 11 11 11 11 12 14 17 17
21 22 22 23 23 24 24 24 24 24 25 25 24 24 24 24 23 22 22 18 16 14 12 11 11 11 9 8 7 6 6 6 5 8 12 12 12 12 13 16 18 18 18

GFSMW_con_lsi_201.txt.gz
Lid_Strength_Index
4 4 4 4 4 4 4 3 3 3 3 4 4 3 3 3 3 3 2 2 2 2 2 2 3 3 3 3 3 3 3 2 3 3 3 5 3 3 2 2 2 3 4
7 6 6 6 6 5 5 4 4 3 3 3 3 3 4 3 3 3 3 3 3 4 5 5 5 4 4 4 3 3 3 3 3 4 6 7 6 3 3 3 4 4 4
7 10 9 8 8 10 8 5 4 4 4 3 4 5 5 6 6 6 5 5 4 4 4 4 4 4 4 4 4 4 3 3 3 4 5 8 8 4 4 6 6 7 7
11 10 10 10 9 9 9 9 9 9 9 8 6 6 6 6 6 5 6 6 5 5 5 5 5 5 4 4 4 3 3 3 3 4 3 5 5 6 6 6 8 8 8
11 10 10 10 10 10 11 11 10 10 10 10 8 8 8 8 8 7 7 7 7 6 6 6 6 6 5 5 5 4 4 3 2 4 5 5 5 4 5 7 9 10 10
11 11 10 10 10 11 11 11 11 10 10 10 9 9 9 9 9 9 9 8 8 7 7 7 7 7 6 6 5 5 5 4 3 3 3 3 4 4 4 5 8 8 11
11 11 11 12 12 11 11 11 10 11 11 10 10 10 10 10 10 10 9 9 8 8 7 7 7 7 6 7 6 6 6 5 4 3 3 3 5 5 5 4 6 9 13
11 12 12 12 11 11 11 11 11 11 11 11 11 11 11 11 10 10 9 9 8 8 7 7 7 7 7 7 7 7 7 7 6 5 4 3 3 5 5 4 6 8 11
12 12 12 12 12 12 12 11 11 12 12 12 12 12 11 11 11 11 10 10 9 8 8 8 8 8 8 8 8 8 8 7 7 6 6 5 4 6 5 5 6 4 7
13 13 13 13 12 13 12 12 12 13 13 12 12 11 11 11 11 10 10 10 10 10 9 9 9 8 8 8 8 8 8 8 7 7 7 5 5 6 7 7 6 7 6
13 13 13 13 13 13 13 13 13 13 13 12 12 12 12 11 11 11 11 11 10 9 9 9 8 8 8 8 8 8 8 8 7 7 7 6 6 7 8 9 9 8 9
13 13 13 13 13 13 13 13 13 13 13 12 12 12 12 12 11 11 11 10 10 10 10 9 9 9 8 8 7 7 7 7 7 7 7 7 7 8 8 10 9 9 8
13 13 13 13 13 13 13 13 13 13 13 13 12 11 12 12 13 12 12 11 11 11 10 9 9 8 8 8 8 8 8 7 8 7 7 7 8 8 9 10 10 10 9
13 14 14 13 13 13 13 13 13 13 12 12 13 13 14 14 14 13 13 12 12 11 10 10 10 10 9 9 9 9 8 8 8 8 8 7 8 8 8 9 10 10 11
14 14 14 13 13 14 14 13 14 13 13 14 14 14 14 14 14 14 13 12 12 12 12 12 11 11 10 10 10 10 10 10 9 9 9 8 8 8 7 8 9 10 11
13 13 13 13 13 13 14 14 14 14 13 14 14 14 14 14 14 14 14 14 14 13 13 13 12 12 11 9 9 9 10 10 10 10 10 9 10 9 8 7 7 9 11
13 13 13 13 13 14 14 15 15 14 14 14 14 14 14 15 14 14 14 15 15 14 14 14 13 13 12 10 9 9 10 10 10 10 10 10 10 10 10 8 7 7 8
13 13 13 13 14 15 15 15 15 15 15 15 15 15 15 16 15 15 15 15 15 15 15 14 14 14 13 11 10 10 11 11 11 11 10 10 10 10 10 10 10 9 9
13 14 14 14 15 16 16 16 16 16 16 16 16 16 16 16 16 17 16 16 16 16 15 15 15 15 14 12 11 11 12 12 12 11 11 11 11 9 7 10 10 10 10
13 15 15 15 16 16 16 16 17 16 17 17 17 17 17 17 18 17 17 16 16 16 16 15 15 15 15 13 12 12 12 13 12 12 11 10 9 8 7 9 10 10 10
14 16 17 17 17 17 17 17 17 18 17 18 18 18 18 18 18 18 18 18 18 17 17 17 16 15 15 14 13 12 13 13 12 12 11 10 7 7 7 7 9 9 8
17 16 18 18 17 17 17 18 19 19 19 19 20 20 20 19 19 19 19 19 19 19 18 18 17 16 16 14 14 13 12 11 12 11 10 10 7 6 5 6 5 6 8
16 17 18 18 18 18 18 20 20 20 21 22 22 22 21 20 20 21 20 21 20 20 19 19 19 18 17 16 14 13 12 11 11 10 9 6 5 4 5 5 5 7 11
18 19 20 20 20 20 20 21 21 22 24 24 23 22 22 22 22 21 21 21 21 21 20 19 19 18 18 17 16 14 13 12 11 10 9 7 5 4 5 7 6 7 12
20 20 21 21 22 22 23 24 23 24 25 24 23 23 23 24 24 23 23 21 20 19 19 19 18 18 19 17 13 13 13 12 10 8 8 8 7 7 8 8 9 11 14
22 23 23 24 25 26 26 26 26 26 27 26 25 25 25 25 25 24 24 20 18 17 16 15 16 16 13 12 12 10 9 9 8 9 8 8 8 9 9 11 14 14 15

GFSMW_con_lsi_207.txt.gz
Lid_Strength_Index
4 3 3 3 3 3 3 3 2 2 2 2 2 2 2 1 1 1 2 3 3 2 1 0 1 1 1 1 1 1 2 2 1 2 2 1 1 1 1 1 1 1 1
8 8 8 8 8 8 6 5 4 3 3 2 2 2 2 2 3 4 4 5 4 4 4 3 3 3 3 3 3 3 3 2 2 3 3 5 3 2 2 1 1 1 1
10 10 10 10 10 10 9 9 8 8 7 4 3 3 2 3 6 7 7 6 6 6 5 4 4 4 4 4 4 4 4 4 3 2 4 6 6 5 2 3 2 2 3
10 10 10 10 10 10 9 9 9 9 8 7 6 6 7 7 8 8 8 7 7 7 7 6 6 5 5 5 5 5 5 4 5 4 3 2 3 6 6 5 5 4 4
12 11 11 11 10 10 10 10 10 9 10 10 9 8 9 9 9 9 9 9 8 8 8 8 7 7 7 6 6 6 6 5 5 5 5 4 3 3 5 6 4 6 5
12 11 11 10 11 10 11 11 11 11 11 11 11 11 11 11 11 10 10 10 9 9 9 9 9 9 8 8 8 7 7 7 6 6 6 6 5 5 4 5 4 4 4
12 12 12 13 12 12 12 12 12 12 12 12 12 11 11 12 12 12 12 12 12 11 11 11 10 10 10 10 9 9 8 8 8 7 6 5 4 4 4 4 4 5 3
12 12 12 13 13 13 13 13 13 14 13 13 13 13 13 13 13 13 13 13 13 13 12 12 12 11 11 11 11 10 9 8 7 7 6 6 5 4 3 3 3 5 4
12 12 13 13 14 14 14 14 14 14 14 14 14 15 14 14 14 14 14 14 14 14 13 13 13 13 12 11 10 9 9 8 8 7 7 7 6 4 3 2 2 4 6
12 13 13 14 14 14 14 14 15 15 15 15 15 15 15 15 15 15 15 15 15 14 14 14 13 12 12 11 11 11 10 10 9 8 8 7 6 5 4 4 3 4 4
14 14 14 14 14 14 15 15 15 15 15 15 15 15 16 16 16 16 16 16 15 15 14 13 13 13 13 12 12 12 11 11 10 9 9 8 7 7 7 6 5 5 5
14 14 14 15 15 15 16 16 16 16 16 15 16 16 16 16 16 16 16 15 15 14 15 14 13 13 13 13 12 12 11 11 11 10 10 9 9 8 8 7 7 7 6
15 15 15 15 16 16 17 17 16 16 16 16 17 17 17 17 16 15 14 15 14 14 14 14 14 13 13 13 12 11 11 11 11 10 10 10 10 10 9 9 9 8 8
15 16 16 16 16 17 17 17 17 17 17 17 17 17 17 16 16 15 15 15 15 15 15 14 14 14 13 13 12 11 11 11 11 11 11 11 11 11 11 10 10 10 10
15 16 16 17 17 17 17 17 17 17 17 17 17 17 16 15 16 16 16 15 15 15 15 15 15 14 13 12 12 12 12 12 12 12 12 11 12 11 11 12 12 12 12
15 15 16 17 17 17 18 17 17 17 16 17 16 16 17 16 16 16 16 16 16 16 15 15 15 14 14 12 11 12 13 13 13 13 13 13 12 12 12 12 11 12 13
15 16 16 17 17 17 17 18 17 17 17 17 17 18 17 17 17 17 17 17 17 16 16 15 15 15 14 12 12 12 13 14 14 14 14 14 14 13 14 13 12 12 11
15 16 17 17 18 17 17 17 17 17 17 18 18 18 18 18 18 17 17 17 17 16 16 16 16 16 15 13 13 13 14 15 15 15 15 15 15 14 14 14 14 14 13
16 16 16 17 18 18 17 16 17 18 18 19 19 19 19 19 18 18 18 17 17 17 17 16 16 17 16 14 14 14 15 16 16 15 15 15 16 14 13 15 15 14 14
17 17 17 17 17 18 17 18 19 19 20 20 20 19 19 19 18 18 19 18 18 18 17 17 17 17 17 16 15 15 16 17 16 16 16 15 15 14 13 14 14 15 14
17 17 17 18 18 18 18 19 19 20 20 20 20 20 19 19 19 19 19 19 19 19 19 19 18 18 17 17 15 15 16 17 17 17 17 16 14 13 13 13 14 14 12
18 18 18 18 19 19 19 20 21 21 21 21 21 21 20 20 20 20 20 20 20 21 21 20 19 18 18 17 16 16 15 15 17 17 16 16 14 14 14 14 13 12 12
18 18 19 20 20 20 20 21 21 21 22 23 23 22 22 21 21 21 22 22 22 22 22 21 20 20 19 18 17 16 15 15 16 16 16 15 15 15 16 15 14 13 12
19 20 20 21 22 22 21 22 22 23 26 25 23 22 23 24 23 23 22 23 23 23 21 21 21 21 20 19 18 17 17 16 17 16 17 17 17 17 17 17 15 13 11
20 21 21 22 23 23 24 25 24 25 25 24 24 24 24 25 24 24 24 23 21 20 21 21 21 21 21 19 16 16 17 17 16 18 20 21 21 20 19 17 16 14 12
22 23 24 24 25 26 26 27 29 28 29 26 26 26 26 26 26 26 25 22 20 19 18 17 18 18 17 16 15 14 14 14 16 20 22 22 21 20 19 19 17 15 13

GFSMW_con_lsi_210.txt.gz
Lid_Strength_Index
3 2 2 1 1 1 1 1 1 0 -0 0 1 1 1 -0 1 1 3 3 3 4 2 1 1 1 1 1 1 1 1 2 1 2 2 2 1 1 0 -0 -0 -0 -1
4 5 4 4 3 3 3 2 2 1 1 0 0 -0 -0 2 4 5 6 6 5 4 4 3 3 3 3 3 2 2 2 2 2 3 4 5 4 2 1 1 1 0 -0
6 6 7 6 5 6 6 6 6 5 4 2 1 1 2 4 5 7 7 6 6 6 5 5 4 4 3 4 4 4 4 5 3 3 5 6 7 5 3 2 1 1 1
7 8 9 8 8 8 7 7 7 7 7 6 6 6 6 9 9 8 7 7 7 7 7 7 7 6 6 6 5 5 5 5 6 5 4 4 5 7 7 4 3 3 3
8 9 9 9 9 9 9 9 10 10 9 9 8 8 8 9 9 9 8 8 9 9 9 9 8 8 8 7 7 7 7 6 6 6 6 6 5 5 6 8 6 5 4
10 10 10 10 11 11 10 11 12 12 11 11 10 10 11 11 11 11 11 11 11 11 12 11 11 10 10 10 10 9 8 8 8 7 7 7 8 7 7 7 6 6 4
11 12 13 13 13 13 13 12 12 13 12 12 13 12 12 13 13 13 13 13 13 13 14 13 12 12 12 11 11 10 10 10 9 9 8 7 6 6 6 6 7 7 5
12 12 12 13 13 13 14 14 14 14 14 14 14 14 14 14 14 15 15 15 15 14 14 13 13 13 13 12 12 11 10 10 8 8 8 7 7 6 6 7 7 8 7
11 11 12 12 13 13 14 14 15 15 15 15 15 16 15 15 16 15 15 15 15 15 14 14 13 13 13 12 11 11 11 10 9 9 9 9 8 7 6 5 5 6 9
12 12 12 13 13 14 14 14 15 15 15 15 16 16 16 15 15 16 16 16 15 15 14 14 14 14 13 12 11 11 10 10 10 10 10 9 8 7 6 6 6 6 7
13 13 13 14 14 15 15 15 15 15 16 16 16 16 16 16 15 16 16 16 15 15 15 15 14 14 13 12 12 11 11 11 11 10 10 9 9 9 8 7 7 7 7
13 14 14 15 15 15 15 16 16 16 16 16 16 16 16 16 16 16 16 16 16 15 15 14 13 13 13 12 12 12 12 12 12 11 10 10 10 9 9 9 9 9 8
14 14 14 15 16 16 16 16 16 16 16 17 17 17 17 17 17 17 16 16 15 14 14 14 14 13 13 13 12 12 12 12 11 11 11 11 11 11 11 11 11 11 10
14 14 15 15 16 16 16 17 17 17 17 17 16 17 17 17 16 16 16 15 15 14 14 14 14 14 14 13 12 12 12 11 11 11 11 11 11 12 12 12 12 12 13
14 15 15 16 16 16 16 16 17 17 16 16 17 17 17 17 16 16 16 15 15 15 14 14 14 14 14 13 12 12 12 12 12 12 12 12 12 12 12 12 13 13 13
14 15 15 16 16 16 16 17 16 16 16 17 18 17 17 16 16 16 16 16 16 15 15 15 15 14 14 12 12 12 13 13 13 14 13 13 13 13 13 13 13 13 14
14 14 15 16 16 16 16 17 17 17 17 17 17 17 17 16 16 16 17 16 16 16 15 15 14 14 14 13 13 13 13 14 14 14 14 14 14 14 14 14 13 13 12
13 14 15 16 16 16 16 16 17 17 17 17 17 17 17 17 17 17 17 17 16 16 15 15 15 15 15 14 14 14 14 15 15 15 15 15 15 15 14 14 14 13 13
13 14 14 15 16 16 16 16 17 17 17 18 18 18 18 18 18 18 18 17 16 16 16 16 15 16 15 15 15 15 15 16 16 15 16 16 16 14 14 15 15 15 14
13 15 15 16 16 16 16 17 17 18 18 18 18 18 18 18 18 18 17 17 16 17 16 17 16 16 16 16 15 16 16 17 16 16 16 15 15 15 14 15 15 17 16
14 15 16 16 17 16 16 17 17 18 19 19 19 19 18 18 18 18 18 18 18 18 18 18 17 17 17 17 16 16 17 17 17 17 16 16 15 14 14 14 16 16 15
16 16 16 17 17 16 16 17 18 19 19 19 19 19 19 19 18 19 19 19 19 19 19 18 18 17 18 17 17 16 15 15 16 16 16 16 15 15 15 15 15 15 15
16 16 16 17 18 18 17 18 19 20 20 20 21 20 20 20 20 20 20 19 19 20 19 19 19 19 18 18 17 16 15 15 15 16 15 16 16 16 17 16 15 16 16
17 17 17 18 19 19 19 19 20 21 23 22 21 21 21 21 21 20 20 20 20 20 20 20 20 19 19 18 17 16 16 15 16 16 17 17 17 17 17 17 16 16 15
18 18 18 18 19 20 21 22 22 23 22 22 22 21 21 22 22 22 21 21 20 20 20 20 19 20 20 18 16 16 16 16 16 17 18 19 19 19 18 17 17 15 15
18 19 19 20 21 22 22 24 25 25 24 22 22 22 22 22 22 22 22 21 21 20 19 18 19 18 17 16 16 15 14 14 15 19 20 20 20 19 19 18 17 16 16

GFSMW_con_lsi_216.txt.gz
Lid_Strength_Index
4 3 2 2 2 2 2 1 1 1 1 1 1 1 4 6 6 6 5 6 6 6 5 4 5 5 5 5 5 6 6 6 5 6 6 6 6 6 6 6 5 4 4
5 4 3 3 3 2 2 2 2 2 1 1 2 5 7 7 6 7 8 8 7 7 6 6 7 7 6 7 8 7 7 7 6 8 8 10 7 6 6 6 6 5 4
5 6 8 8 8 8 8 7 7 7 6 4 6 7 7 7 7 8 9 10 10 10 9 9 8 8 8 9 9 9 9 9 8 7 7 10 11 9 7 7 6 7 5
8 8 9 10 10 11 10 11 10 10 9 7 7 8 9 10 9 9 10 11 11 11 11 11 11 11 11 11 10 10 10 10 11 9 9 9 10 11 11 8 8 8 8
9 9 10 11 11 12 12 12 13 12 12 10 10 10 11 11 11 12 12 12 12 13 13 12 12 12 12 12 11 11 12 12 12 12 12 10 11 9 12 13 11 10 9
11 11 11 12 13 13 13 14 14 14 13 13 13 13 14 14 14 14 14 14 14 14 14 13 13 13 13 13 12 12 13 13 12 12 12 12 12 12 12 13 13 13 11
12 12 13 13 13 14 14 14 14 14 13 13 14 14 14 14 15 14 14 15 15 15 15 14 14 14 14 13 13 13 14 13 13 13 13 13 12 12 12 13 14 14 12
13 13 13 13 13 13 13 13 14 14 14 14 14 14 14 14 14 14 14 15 15 15 15 15 15 15 14 14 13 13 13 13 13 13 13 13 12 12 12 12 13 14 13
13 13 12 12 12 12 13 13 13 14 14 14 14 14 14 15 15 15 15 16 16 15 15 15 15 15 14 14 14 13 14 13 13 13 13 13 12 12 12 11 11 13 15
11 11 12 12 13 13 13 13 13 14 14 14 15 16 16 16 16 16 16 16 16 16 16 16 16 16 14 14 14 14 14 14 13 13 13 12 12 12 12 12 12 12 13
11 12 12 13 14 14 14 15 15 15 16 16 16 16 16 16 17 17 17 16 16 16 16 16 15 15 14 14 14 14 14 14 14 13 13 13 13 13 12 13 12 13 13
11 12 13 14 14 14 15 15 16 16 16 16 17 17 17 17 17 17 17 17 17 16 16 15 15 15 15 14 14 15 14 14 14 14 13 13 12 13 14 14 14 15 14
12 13 14 14 15 15 15 16 16 17 17 17 17 17 17 17 17 17 17 17 16 16 16 15 15 15 14 14 14 14 14 14 14 13 13 14 14 15 15 15 16 16 15
12 13 14 15 15 15 16 17 17 16 16 17 17 17 18 17 17 17 17 17 16 16 16 15 15 15 14 14 14 14 15 14 14 13 14 14 15 15 16 16 17 16 17
12 13 14 15 16 17 17 17 17 17 17 18 18 18 17 17 17 17 17 17 17 16 16 16 16 15 15 14 14 15 15 15 15 15 15 15 15 15 15 16 17 17 17
12 12 14 15 16 16 16 16 17 17 17 18 18 18 18 18 18 17 17 17 17 17 16 16 16 16 15 13 13 14 15 15 16 16 16 16 16 16 15 15 14 15 17
11 13 14 15 15 16 16 17 17 17 17 18 18 18 18 18 18 18 17 17 17 17 17 17 16 17 16 13 13 14 16 16 17 17 17 17 16 16 17 15 15 15 14
11 12 14 15 15 16 16 17 17 17 18 18 18 18 18 18 18 18 18 18 18 18 17 17 17 17 16 14 14 15 17 17 17 17 17 17 17 17 16 16 17 16 16
11 13 14 15 16 16 17 17 17 17 18 18 18 18 18 18 18 18 18 18 18 18 17 17 17 17 17 15 15 16 17 17 17 17 17 17 17 16 14 16 17 17 17
12 13 15 15 16 16 16 17 18 18 19 18 18 18 18 17 18 18 18 18 17 17 17 17 17 17 18 16 15 16 17 18 17 17 17 15 16 14 13 16 17 19 18
13 14 15 16 16 16 16 17 18 19 19 18 18 18 18 18 18 18 18 18 18 18 18 18 17 17 17 18 16 15 17 17 18 18 17 16 14 13 13 14 17 17 16
15 16 16 16 16 17 17 18 18 19 19 18 18 19 19 18 18 19 18 18 19 19 19 19 19 18 18 17 16 16 16 16 18 18 17 16 14 14 14 15 14 14 16
16 16 17 18 18 18 17 18 19 19 20 21 22 21 20 18 18 20 19 21 20 21 20 20 21 20 19 18 17 17 16 16 17 16 15 14 14 15 16 15 15 17 20
17 18 18 19 20 20 18 18 19 20 23 23 22 21 21 21 21 20 19 21 22 22 21 21 22 22 21 20 19 18 18 16 16 15 16 16 16 16 17 19 18 19 19
18 18 19 19 19 20 21 22 21 22 22 22 21 21 21 23 22 21 22 21 21 21 25 26 24 26 25 21 17 17 18 17 16 16 20 21 22 22 21 21 21 20 19
18 19 20 20 21 22 22 23 24 24 24 22 22 23 23 24 23 24 24 19 18 18 18 18 19 21 18 17 16 16 15 14 14 20 25 24 23 23 22 22 22 20 19

GFSMW_con_lsi_219.txt.gz
Lid_Strength_Index
4 3 2 2 2 2 2 1 1 1 2 1 1 4 6 6 7 7 7 8 7 6 7 7 6 6 7 7 7 7 7 7 7 7 8 7 7 8 9 7 7 8 6
6 7 8 8 8 7 7 7 6 4 3 2 4 6 6 7 9 10 10 10 9 9 9 9 9 9 9 10 9 10 9 9 9 10 9 9 8 8 9 9 8 9 9
8 9 10 11 11 11 10 10 9 7 6 6 7 7 7 8 10 12 12 11 11 11 11 11 11 11 11 11 12 11 12 11 10 11 11 13 13 11 9 9 10 10 11
9 10 11 12 12 13 12 12 12 9 9 8 8 9 10 12 12 12 12 13 13 13 12 12 12 12 12 12 12 12 12 12 13 12 11 11 13 13 13 11 10 11 11
10 11 12 13 13 13 14 13 12 13 12 11 11 12 13 13 13 13 13 13 13 13 13 13 13 13 13 13 13 13 14 13 14 13 13 12 13 13 15 15 14 12 12
12 12 13 13 14 14 14 13 13 13 13 13 13 14 14 14 14 14 14 14 14 14 14 13 14 14 14 13 13 14 14 13 13 14 14 14 14 15 15 16 16 15 13
14 14 14 14 14 14 13 13 13 13 13 13 13 13 13 13 14 14 15 15 15 15 15 15 15 15 14 14 14 14 14 15 15 15 15 14 14 14 14 14 15 15 13
14 14 14 13 13 12 12 12 13 13 13 13 14 13 13 14 14 14 15 15 15 16 15 15 15 15 14 14 14 15 15 15 15 15 15 14 14 13 13 14 15 16 15
14 14 13 12 12 12 13 13 13 13 13 14 14 14 14 15 15 15 16 16 16 16 16 15 16 15 15 15 15 15 15 15 14 15 14 14 14 13 13 14 14 15 18
13 12 12 12 12 12 12 12 12 14 14 15 15 16 16 16 16 17 17 17 16 16 16 16 16 16 16 16 15 15 14 14 14 14 14 14 14 14 14 14 14 14 16
12 12 12 12 13 13 14 14 14 15 16 16 16 17 17 17 17 17 17 17 16 16 16 16 16 16 16 15 15 15 15 15 15 15 14 15 14 15 15 14 14 16 16
11 12 12 13 14 14 15 15 16 16 16 16 17 17 17 17 18 17 17 17 17 17 17 16 16 15 15 15 15 16 15 15 16 15 15 15 14 15 15 15 16 16 16
12 12 13 14 14 14 15 16 16 17 17 17 17 17 17 18 18 18 17 17 17 17 16 16 16 15 15 15 15 15 16 15 15 15 15 15 15 15 16 17 17 17 17
12 12 13 14 14 15 16 17 17 17 17 17 17 18 18 18 18 18 17 17 17 17 17 16 16 15 15 15 15 15 16 15 15 15 14 15 16 17 17 17 17 17 18
11 12 13 14 16 17 17 17 17 18 17 18 18 18 18 18 18 18 18 17 17 17 17 17 16 16 15 14 15 15 16 16 16 15 16 16 16 16 16 17 17 17 18
10 11 14 15 16 17 17 17 18 18 17 18 18 18 18 18 18 18 18 18 17 17 17 17 16 16 15 13 13 14 16 16 16 17 17 17 17 16 16 15 15 15 18
10 12 14 15 15 16 16 17 17 17 18 18 18 18 18 18 18 18 18 18 18 17 17 17 17 17 16 14 14 14 16 17 17 17 18 17 17 17 17 16 15 16 15
10 12 14 15 15 16 16 17 17 18 18 18 18 18 18 18 18 18 19 18 18 17 17 17 17 17 16 14 14 15 17 17 17 17 17 18 17 17 16 16 17 17 16
9 12 13 14 15 16 16 17 17 18 18 18 18 18 18 18 18 19 19 18 18 18 18 16 17 17 17 16 15 16 17 17 17 17 17 17 17 16 14 16 17 17 18
10 14 15 15 16 17 17 17 18 18 18 18 18 18 18 18 19 19 18 17 17 17 16 17 17 17 18 17 16 16 17 18 17 17 17 16 16 14 14 16 17 20 19
14 14 14 15 15 17 16 17 17 18 18 18 18 19 19 18 18 18 18 18 18 18 18 18 18 18 18 18 16 16 17 18 18 18 18 17 15 13 14 14 17 18 16
15 15 16 15 16 17 16 17 18 18 19 19 19 19 20 18 18 19 18 18 19 20 20 20 19 19 18 17 17 16 16 16 18 18 18 17 14 14 14 16 15 14 17
16 16 16 18 17 17 17 17 18 19 20 20 21 21 20 18 18 20 20 21 20 21 21 20 21 21 19 19 18 17 16 16 17 17 16 14 15 16 17 17 16 18 21
17 18 18 19 19 19 17 17 19 19 22 22 21 21 21 21 21 20 20 21 23 23 21 22 23 23 22 21 20 19 18 17 17 16 19 17 18 18 18 20 19 20 21
18 18 18 18 20 20 20 21 21 22 22 22 21 21 21 23 22 21 22 21 21 21 25 25 24 26 25 22 17 17 18 18 16 19 25 23 23 23 23 23 23 22 21
19 20 20 20 21 22 23 24 24 23 23 22 22 23 23 24 23 24 24 20 18 17 17 17 19 21 18 16 16 16 15 15 15 24 28 25 24 25 24 24 24 23 22